Regional Weather Roundup
Issued by NWS

Home | Current Version | Previous Version | Text Only | Print | Product List | Glossary On
Versions: 1 2 3 4 5 6 7 8 9 10 11 12 13 14 15 16 17 18 19 20 21 22 23 24 25 26 27 28 29 30 31 32 33 34 35 36 37 38 39 40 41 42 43 44 45 46 47 48 49 50
000
ASUS43 KMPX 142101
RWRMN
WEATHER ROUNDUP FOR MINNESOTA
NATIONAL WEATHER SERVICE TWIN CITIES/CHANHASSEN MN
300 PM CST THU DEC 14 2017


NOTE: "FAIR" INDICATES FEW OR NO CLOUDS BELOW 12,000 FEET WITH NO
SIGNIFICANT WEATHER AND/OR OBSTRUCTIONS TO VISIBILITY. N/A MEANS
CURRENT SKY AND/OR WEATHER CONDITIONS ARE NOT AVAILABLE.

MNZ060>063-068>070-142200-
   Twin Cities Metro

CITY           SKY/WX    TMP DP  RH WIND       PRES   REMARKS
TWIN CITIES    CLOUDY    22  17  81 W7        30.02S WCI  13
ST PAUL        CLOUDY    22  16  78 SW8       30.03S WCI  12
CRYSTAL        CLOUDY    22  14  71 W7        30.00F WCI  13
BLAINE         CLOUDY    23  18  80 W8        30.00F WCI  14
LAKEVILLE      CLOUDY    19  18  93 W7        30.01F WCI  10
EDEN PRAIRIE   CLOUDY    23  16  74 W9        30.01R WCI  13
SOUTH ST PAUL  CLOUDY    23  17  78 W8        30.02S WCI  13
LAKE ELMO      CLOUDY    23  19  86 W8        30.02S WCI  14
$$
MNZ001>005-007-008-013>017-022>024-027-028-142200-
   Northwest Minnesota

CITY           SKY/WX    TMP DP  RH WIND       PRES   REMARKS
BEMIDJI        LGT SNOW  15  10  80 NW16      29.97R WCI  -1
HALLOCK        CLOUDY    19  16  86 NW14      30.04S WCI   6
ROSEAU         LGT SNOW  14   9  79 W7        29.99F WCI   4
WARROAD        LGT SNOW  12   9  85 NW8       29.98F WCI   1
THIEF RVR FALL LGT SNOW  16  10  79 NW13      30.03S FOG     WCI   2
CROOKSTON      CLOUDY    18  14  86 N14       30.07R WCI   4
FOSSTON        LGT SNOW  16  10  79 NW8       30.01S WCI   5
DETROIT LAKES  CLOUDY    21  18  86 NW16      30.02S WCI   7
MOORHEAD       CLOUDY    21  18  86 CALM      30.07F
PARK RAPIDS    LGT SNOW  18  13  80 NW13      29.96S WCI   5
MAHNOMEN       FLURRIES  17  14  86 NW14      30.02S WCI   3
$$
MNZ006-009>011-018-025>026-142200-
   North Central Minnesota

CITY           SKY/WX    TMP DP  RH WIND       PRES   REMARKS
BAUDETTE       FLURRIES  13   7  77 W12       29.96S WCI  -1
FLAG ISLAND    LGT SNOW  12   9  85 W10       29.95F WCI  -1
INTL FALLS     LGT SNOW  15   7  70 W9        29.93S VSB 3/4 WCI   3
WASKISH        FLURRIES  14   9  79 W8        29.98R WCI   3
BIG FORK       FLURRIES  16   9  73 NW5       29.94S WCI   9
LONGVILLE      FLURRIES  18  12  79 NW3       29.96S
GRAND RAPIDS   FLURRIES  17  10  74 NW10      29.95S WCI   5
CRANE LAKE     FLURRIES  14   9  79 W7        29.95R WCI   4
ORR            LGT SNOW  12   7  79 NW7       29.90S WCI   2
COOK           FLURRIES  14   9  79 W7        29.92S WCI   4
WALKER         FLURRIES  17  12  82 W8        29.96S WCI   6
$$
MNZ012-019>021-037-142200-
   Northeast Minnesota

CITY           SKY/WX    TMP DP  RH WIND       PRES   REMARKS
DULUTH         FLURRIES  16  10  77 W12       29.90F WCI   3
ELY            FLURRIES  14   9  79 W7        29.90R WCI   4
HIBBING        FLURRIES  15   8  73 NW6       29.92S WCI   6
EVELETH        LGT SNOW  15   8  72 W6        29.92F WCI   6
DULUTH HARBOR  CLOUDY    21  14  73 W8        29.97S WCI  12
TWO HARBORS    FLURRIES  21  12  68 W5        29.90S WCI  15
SILVER BAY     CLOUDY    19  12  73 W3        29.89S
GRAND MARAIS     N/A     21  11  65 NW3       29.93F
G MARAIS ARPRT CLOUDY    12   5  73 W3        29.84S
$$
MNZ029>031-032-039>041-046>048-054>057-064-142200-
   West Central Minnesota

CITY           SKY/WX    TMP DP  RH WIND       PRES   REMARKS
FERGUS FALLS   CLOUDY    21  19  93 N13G18    30.07S WCI   9
WHEATON        CLOUDY    25  19  80 NW12      30.09R WCI  14
MORRIS         CLOUDY    25  19  80 NW15      30.04S WCI  12
ALEXANDRIA     CLOUDY    22  16  78 NW16G23   30.01R WCI   8
ELBOW LAKE     CLOUDY    22  19  85 NW13      30.04S WCI  10
WADENA         MIX PCPN  19  12  73 NW15G25   29.99S WCI   5
GLENWOOD       SUNNY     23  19  86 NW15G22   30.01S WCI  10
APPLETON       CLOUDY    27  21  80 NW12G17   30.06R WCI  16
BENSON         CLOUDY    27  19  74 N17       30.05S WCI  14
ORTONVILLE     CLOUDY    25  21  86 NW9       30.06S WCI  15
MADISON        CLOUDY    28  25  86 NW8       30.07R FOG     WCI  20
WILLMAR        FLURRIES  27  19  74 NW12      30.04R WCI  16
$$
MNZ033>034-036-042>043-049>051-058-059-142200-
   Central Minnesota

CITY           SKY/WX    TMP DP  RH WIND       PRES   REMARKS
ST CLOUD       CLOUDY    21  14  74 NW9       30.00S WCI  11
SAUK CENTRE    CLOUDY    22  16  77 NW16      30.01R WCI   8
PAYNESVILLE    CLOUDY    24  19  83 NW7       30.02R WCI  15
AITKIN         LGT SNOW  18  12  79 NW5       29.95S WCI  11
PINE RIVER     CLOUDY    18  10  73 NW6       30.00S WCI   9
BRAINERD       LGT SNOW  20  13  74 NW8       29.98S WCI  10
STAPLES        FLURRIES  19  12  73 NW14      29.98S WCI   6
LONG PRAIRIE   CLOUDY    21  18  86 W14G22    29.99F WCI   8
LITTLE FALLS   FLURRIES  21  12  68 W9        30.00S WCI  11
LITCHFIELD     CLOUDY    25  18  74 NW8       30.02S WCI  16
BUFFALO        CLOUDY    22  16  79 W8        30.02F WCI  12
MAPLE LAKE     CLOUDY    23  18  82 NW8       30.02S WCI  14
HUTCHINSON     CLOUDY    25  19  78 W6        30.03S WCI  18
$$
MNZ037-044-045-052-053-142200-
   East Central Minnesota

CITY           SKY/WX    TMP DP  RH WIND       PRES   REMARKS
PRINCETON      CLOUDY    21  18  86 W9        29.99S WCI  11
MORA           CLOUDY    21  12  68 NW7       29.99F WCI  13
CAMBRIDGE      FLURRIES  21  12  68 W9        30.00S WCI  11
RUSH CITY      CLOUDY    21  15  78 W6        29.99F WCI  13
MOOSE LAKE     CLOUDY    21  12  68 W6        29.94S WCI  14
HINCKLEY       CLOUDY    21  14  73 W9        29.97F WCI  11
CLOQUET        FLURRIES  18  10  73 W9        29.92S WCI   6
MCGREGOR       CLOUDY    19  14  79 NW9       29.96R WCI   9
$$
MNZ071>073-080-081-089-090-097-098-142200-
   Southwest Minnesota

CITY           SKY/WX    TMP DP  RH WIND       PRES   REMARKS
MONTEVIDEO     CLOUDY    27  21  80 N9        30.06R WCI  17
GRANITE FALLS  CLOUDY    28  21  75 NW9       30.07R WCI  20
CANBY          CLOUDY    27  25  90 W7        30.07S FOG     WCI  20
REDWOOD FALLS  CLOUDY    27  19  72 NW8       30.04R WCI  19
OLIVIA         CLOUDY    28  21  74 NW10      30.03S WCI  19
PIPESTONE      CLOUDY    30  25  80 CALM      30.01R
WINDOM           N/A     28  14  54 NW9       30.02S WCI  20
WORTHINGTON    FLURRIES  30  24  78 NW9       30.03R WCI  22
JACKSON        CLOUDY    30  21  69 MISG      30.02R
SLAYTON        CLOUDY    28  24  83 N6        30.03R WCI  22
$$
MNZ065>067-074>077-082>085-091>093-142200-
   South Central Minnesota

CITY           SKY/WX    TMP DP  RH WIND       PRES   REMARKS
MANKATO        CLOUDY    23  18  81 NW13      30.03S WCI  11
NEW ULM        CLOUDY    25  18  74 NW12      30.03S WCI  14
ST JAMES       CLOUDY    27  21  80 NW12      30.04S WCI  16
FAIRMONT       CLOUDY    27  21  78 NW12      30.03S WCI  17
GLENCOE        CLOUDY    24  20  86 W6        30.02F WCI  16
FARIBAULT      CLOUDY    23  18  80 W8        30.01F WCI  14
OWATONNA       MIX PCPN  21  18  86 W9        30.01S WCI  11
WASECA         CLOUDY    23  19  86 W8        30.03F WCI  14
ALBERT LEA     CLOUDY    21  18  86 NW6       30.02R WCI  14
$$
MNZ078>079-086>088-094>096-142200-
   Southeast Minnesota

CITY           SKY/WX    TMP DP  RH WIND       PRES   REMARKS
ROCHESTER      CLOUDY    21  16  81 W8        30.00S WCI  11
RED WING       CLOUDY    23  16  74 W8        30.02S WCI  14
STANTON        CLOUDY    24  18  80 W7        30.00F WCI  16
DODGE CENTER   CLOUDY    21  18  86 W8        30.00S WCI  12
WINONA           N/A     28  18  64 W5        30.04S WCI  23
AUSTIN         CLOUDY    23  16  74 W8        30.01S WCI  14
PRESTON        CLOUDY    23  14  68 W10       30.01R WCI  13
$$
ABBREVIATIONS USED IN REMARKS
   TC - TEMPERATURES IN CELSIUS
  WCI - WIND CHILL INDEX
   HX - HEAT INDEX
  VSB - VISIBILITY
$$




USA.gov is the U.S. government's official web portal to all federal, state and local government web resources and services.